Milwaukee Timmerman, WI

8:15 PM CDT on July 20, 2017 (GMT -0500)
Timmerman

Weather History for KMWC - May, 2014

Change the Weather History Date:

Friday, May 2, 2014

  Actual Average Record
Temperature  
Mean Temperature 48 °F -  
Max Temperature 51 °F 65 °F 88 °F (1959)
Min Temperature 44 °F 42 °F 27 °F (1950)
Degree Days  
Heating Degree Days 18    
Moisture  
Dew Point 40 °F    
Average Humidity 80    
Maximum Humidity 93    
Minimum Humidity 58    
Precipitation  
Precipitation 0.07 in - - ()
Sea Level Pressure  
Sea Level Pressure 29.74 in    
Wind  
Wind Speed 9 mph (WSW)    
Max Wind Speed 13 mph    
Max Gust Speed 20 mph    
Visibility 10 miles    
Events Rain    
Averages and records for this station are not official NWS values.
T = Trace of Precipitation, MM = Missing Value Source: NWS Daily Summary

Daily Weather History Graph

Daily Weather History Graph

Search for Another Location

Airport or City:

Trip Planner

Search our weather history database for the weather conditions in past years. The results will help you decide how hot, cold, wet, or windy it might be!

Date:

Astronomy

May. 02, 2014 Rise Set
Actual Time 5:44 AM CDT 7:54 PM CDT
Civil Twilight 5:13 AM CDT 8:25 PM CDT
Nautical Twilight 4:34 AM CDT 9:04 PM CDT
Astronomical Twilight 3:52 AM CDT 9:47 PM CDT
Moon 8:19 AM CDT (5/2) 11:18 PM CDT (5/2)
Length of Visible Light 15h 12m
Length of Day
14h 10m
Waxing Crescent, 12% of the Moon is Illuminated
May 2
Waxing Crescent
May 6
First Quarter
May 14
Full
May 21
Last Quarter
May 28
New

Hourly Weather History & Observations

Time (CDT) Temp. Windchill Dew Point Humidity Pressure Visibility Wind Dir Wind Speed Gust Speed Precip Events Conditions
12:15 AM 44.6 °F 39.2 °F 42.8 °F 93% 29.77 in 10.0 mi West 10.4 mph - N/A   Overcast
12:35 AM 44.6 °F 39.7 °F 42.8 °F 93% 29.77 in 10.0 mi West 9.2 mph - N/A   Overcast
12:55 AM 44.6 °F 39.7 °F 42.8 °F 93% 29.76 in 10.0 mi West 9.2 mph - N/A   Overcast
1:15 AM 44.6 °F 40.2 °F 41.0 °F 87% 29.76 in 10.0 mi West 8.1 mph - N/A   Overcast
1:35 AM 44.6 °F 40.2 °F 41.0 °F 87% 29.76 in 10.0 mi West 8.1 mph - N/A   Overcast
1:55 AM 44.6 °F 39.2 °F 41.0 °F 87% 29.76 in 10.0 mi West 10.4 mph - N/A   Overcast
2:15 AM 44.6 °F 38.8 °F 41.0 °F 87% 29.75 in 10.0 mi West 11.5 mph - N/A   Light Drizzle
2:35 AM 44.6 °F 39.2 °F 41.0 °F 87% 29.75 in 10.0 mi West 10.4 mph - N/A   Overcast
2:55 AM 44.6 °F 39.2 °F 41.0 °F 87% 29.75 in 10.0 mi West 10.4 mph - N/A   Overcast
3:15 AM 44.6 °F 39.2 °F 41.0 °F 87% 29.75 in 10.0 mi West 10.4 mph - N/A   Overcast
3:35 AM 44.6 °F 39.2 °F 41.0 °F 87% 29.75 in 10.0 mi West 10.4 mph - N/A   Overcast
3:55 AM 44.6 °F 40.2 °F 41.0 °F 87% 29.76 in 10.0 mi West 8.1 mph - N/A   Overcast
4:15 AM 44.6 °F 39.2 °F 41.0 °F 87% 29.76 in 10.0 mi West 10.4 mph - N/A   Overcast
4:35 AM 44.6 °F 40.2 °F 39.2 °F 81% 29.76 in 10.0 mi West 8.1 mph - N/A   Overcast
4:55 AM 44.6 °F 39.7 °F 39.2 °F 81% 29.76 in 10.0 mi West 9.2 mph - N/A   Overcast
5:15 AM 44.6 °F 40.2 °F 39.2 °F 81% 29.76 in 10.0 mi West 8.1 mph - N/A   Overcast
5:35 AM 44.6 °F 40.7 °F 39.2 °F 81% 29.76 in 10.0 mi West 6.9 mph - N/A   Overcast
5:55 AM 44.6 °F 39.7 °F 39.2 °F 81% 29.76 in 10.0 mi West 9.2 mph - N/A   Overcast
6:15 AM 44.6 °F 39.7 °F 39.2 °F 81% 29.76 in 10.0 mi West 9.2 mph - N/A   Overcast
6:35 AM 44.6 °F 40.2 °F 39.2 °F 81% 29.76 in 10.0 mi West 8.1 mph - N/A   Overcast
6:45 AM 44.6 °F 40.2 °F 39.2 °F 81% 29.77 in 10.0 mi West 8.1 mph - N/A   Overcast
7:45 AM 44.6 °F 39.7 °F 39.2 °F 81% 29.77 in 10.0 mi West 9.2 mph - N/A   Overcast
8:45 AM 46.4 °F 42.4 °F 39.2 °F 76% 29.78 in 10.0 mi WSW 8.1 mph - N/A   Overcast
9:45 AM 46.4 °F 42.9 °F 39.2 °F 76% 29.77 in 10.0 mi WSW 6.9 mph - N/A   Overcast
10:45 AM 48.2 °F - 39.2 °F 71% 29.76 in 10.0 mi WSW 10.4 mph - N/A   Overcast
11:45 AM 48.2 °F - 37.4 °F 66% 29.76 in 10.0 mi West 11.5 mph 19.6 mph N/A   Overcast
12:45 PM 48.2 °F - 37.4 °F 66% 29.76 in 10.0 mi West 10.4 mph - N/A   Overcast
1:45 PM 48.2 °F - 37.4 °F 66% 29.75 in 10.0 mi West 12.7 mph - N/A   Overcast
2:45 PM 48.2 °F - 37.4 °F 66% 29.75 in 10.0 mi WSW 9.2 mph - N/A   Overcast
3:45 PM 51.8 °F - 37.4 °F 58% 29.73 in 10.0 mi WSW 11.5 mph - N/A   Overcast
4:45 PM 50.0 °F - 37.4 °F 62% 29.73 in 10.0 mi WSW 11.5 mph - N/A   Overcast
5:45 PM 50.0 °F - 37.4 °F 62% 29.73 in 10.0 mi WSW 6.9 mph - N/A   Overcast
6:45 PM 48.2 °F - 41.0 °F 76% 29.73 in 10.0 mi WSW 9.2 mph - N/A   Overcast
7:45 PM 48.2 °F - 41.0 °F 76% 29.72 in 10.0 mi South 4.6 mph - N/A   Overcast
8:45 PM 48.2 °F - 41.0 °F 76% 29.71 in 10.0 mi South 4.6 mph - N/A   Overcast
9:15 PM 46.4 °F 44.3 °F 41.0 °F 81% 29.71 in 10.0 mi South 4.6 mph - N/A   Drizzle
9:35 PM 46.4 °F 43.5 °F 41.0 °F 81% 29.71 in 10.0 mi SSE 5.8 mph - N/A Rain Light Rain
9:55 PM 46.4 °F 45.2 °F 41.0 °F 81% 29.71 in 10.0 mi SSE 3.5 mph - 0.01 in Rain Rain
10:15 PM 46.4 °F 43.5 °F 41.0 °F 81% 29.70 in 10.0 mi SSE 5.8 mph - N/A   Light Drizzle
10:35 PM 46.4 °F 43.5 °F 42.8 °F 87% 29.69 in 7.0 mi SSE 5.8 mph - 0.03 in Rain Rain
10:55 PM 46.4 °F 42.9 °F 42.8 °F 87% 29.68 in 10.0 mi SE 6.9 mph - 0.05 in Rain Light Rain
11:15 PM 46.4 °F 42.9 °F 42.8 °F 87% 29.66 in 10.0 mi SE 6.9 mph - 0.01 in   Light Drizzle
11:35 PM 46.4 °F 42.9 °F 42.8 °F 87% 29.66 in 10.0 mi SSE 6.9 mph - 0.01 in   Overcast
11:55 PM 46.4 °F 43.5 °F 42.8 °F 87% 29.65 in 10.0 mi SSE 5.8 mph - 0.01 in   Overcast